[[{"header":{"parameterUnit":"m.s-1","parameterCategory":1,"la1":30.2992,"la2":30.254,"lo1":-89.0895,"lo2":-89.0443,"dy":0.0025,"dx":0.0025,"nx":19,"ny":19,"refTime":"2026-03-30T09:00:00:Z","depth":0,"parameterNumber":2,"parameterNumberName":"U-component_of_WINDS"},"data":[0,0,0,-7.0641,-7.0645,-7.0795,-7.0795,-7.1028,-7.1031,0,0,0,0,0,0,0,0,0,0,0,-7.0622,-7.0624,-7.0641,-7.0645,-7.0795,-7.0795,-7.1028,-7.1031,0,0,0,0,0,0,0,0,0,0,0,-7.0621,-7.0624,-7.0627,-7.0646,-7.0795,-7.0795,-7.1027,-7.0899,0,0,0,0,0,0,0,0,0,0,-7.0746,-7.0754,-7.0623,-7.0627,-7.0647,-7.0795,-7.0795,-7.0892,-7.0907,-7.0978,0,-7.1049,0,-7.1044,-7.1049,-7.105,0,0,0,-7.0626,-7.0742,-7.0759,-7.0627,-7.0648,-7.0795,-7.0722,-7.09,-7.0917,-7.0998,-7.1052,-7.1059,-7.1048,-7.1051,-7.1052,-7.1528,-7.1531,0,0,-7.0617,-7.0663,-7.0748,-7.0772,-7.0752,-7.0717,-7.0727,-7.091,-7.0971,-7.1052,-7.1064,-7.1052,-7.1053,-7.1055,-7.1525,-7.1529,0,0,0,-7.0607,-7.0658,-7.0669,-7.0763,-7.0787,-7.0722,-7.0733,-7.0962,-7.0962,-7.1066,-7.1054,-7.1054,-7.1057,-7.1522,-7.1527,-7.1726,0,0,0,-7.0601,-7.0651,-7.0667,-7.0696,-7.0785,-7.0877,-7.0783,-7.095,-7.0969,-7.1053,-7.1054,-7.106,-7.1518,-7.1525,-7.1713,-7.1813,0,0,0,-7.0603,-7.0651,-7.0682,-7.0698,-7.0765,-7.0873,-7.0883,-7.0953,-7.0963,-7.105,-7.1061,-7.1516,-7.1523,-7.1702,-7.1793,-7.1951,0,0,0,-7.0619,-7.0856,-7.0686,-7.0946,-7.0764,-7.0996,-7.0881,-7.1051,-7.115,-7.1056,-7.1519,-7.1526,-7.1698,-7.1781,-7.1939,-7.2092,-7.216,0,0,-7.0943,-7.0897,-7.1047,-7.0898,-7.1173,-7.0969,-7.1272,-7.1318,-7.1285,-7.1449,-7.146,-7.1717,-7.1792,-7.1949,-7.2527,-7.2582,0,0,0,-7.1165,-7.1273,-7.1336,-7.1432,-7.1475,-7.1519,-7.1514,-7.1532,-7.1669,-7.1379,-7.1816,-7.1859,-7.1949,-7.202,-7.2066,-7.214,-7.1561,-7.156,-7.156,-7.1688,-7.1633,-7.1877,-7.1842,-7.1937,-7.1931,-7.2003,-7.2025,-7.194,-7.2045,-7.2093,-7.2451,-7.2536,-7.257,-7.2648,-7.217,-7.2171,-7.2171,-7.2172,-7.2158,-7.2302,-7.2187,-7.2382,-7.2323,-7.2486,-7.249,-7.2425,-7.2568,-7.241,-7.2486,-7.2318,-7.2632,-7.2697,-7.2186,-7.2184,-7.2182,-7.2181,-7.218,-7.2494,-7.2553,-7.2572,-7.2706,-7.2816,-7.2771,-7.2914,-7.2855,-7.28,-7.2876,-7.292,-7.2916,-7.2905,-7.2901,-7.2903,-7.2904,-7.2905,-7.2906,-7.2906,-7.2835,-7.2849,-7.2977,-7.3044,-7.3098,-7.3162,-7.316,-7.3212,-7.3254,-7.3199,-7.3199,-7.3106,-7.2673,-7.2565,-7.2926,-7.2922,-7.292,-7.2918,-7.2917,-7.333,-7.3209,-7.3407,-7.3462,-7.3535,-7.3649,-7.3572,-7.3683,-7.3717,-7.379,-7.368,-7.3371,-7.3318,-7.3281,-7.3191,-7.3691,-7.3691,-7.3691,-7.3692,-7.3613,-7.3581,-7.3771,-7.3863,-7.3946,-7.3897,-7.4123,-7.4124,-7.4106,-7.4124,-7.4043,-7.3919,-7.3884,-7.3852,-7.3803,-7.3718,-7.4341,-7.4342,-7.4342,-7.3914,-7.3888,-7.4091,-7.4073,-7.4126,-7.4173,-7.4384,-7.4494,-7.4447,-7.4368,-7.4136,-7.4109,-7.3909,-7.3846,-7.376,-7.3684,-7.3527,0,0]},{"header":{"parameterUnit":"m.s-1","parameterCategory":1,"la1":30.2992,"la2":30.254,"lo1":-89.0895,"lo2":-89.0443,"dy":0.0025,"dx":0.0025,"nx":19,"ny":19,"refTime":"2026-03-30T09:00:00:Z","depth":0,"parameterNumber":3,"parameterNumberName":"V-component_of_WINDS"},"data":[0,0,0,0.1355,0.1355,0.1345,0.1345,0.1331,0.1331,0,0,0,0,0,0,0,0,0,0,0,0.1357,0.1357,0.1355,0.1355,0.1345,0.1345,0.1331,0.1331,0,0,0,0,0,0,0,0,0,0,0,0.1357,0.1357,0.1357,0.1355,0.1345,0.1345,0.1331,0.1339,0,0,0,0,0,0,0,0,0,0,0.1349,0.135,0.1357,0.1357,0.1354,0.1345,0.1345,0.1339,0.1339,0.1335,0,0.1332,0,0.1332,0.133,0.133,0,0,0,0.1355,0.1351,0.1349,0.1357,0.1354,0.1345,0.1349,0.1339,0.1338,0.1334,0.1332,0.1332,0.1331,0.133,0.133,0.1312,0.1312,0,0,0.1355,0.1355,0.135,0.1348,0.135,0.135,0.1349,0.1338,0.1336,0.1332,0.1331,0.1331,0.133,0.133,0.1312,0.1312,0,0,0,0.1357,0.1355,0.1353,0.1349,0.1347,0.1349,0.1348,0.1336,0.1336,0.1331,0.1331,0.133,0.133,0.1312,0.1312,0.1307,0,0,0,0.1357,0.1356,0.1354,0.1353,0.1347,0.1341,0.1347,0.1337,0.1335,0.1331,0.133,0.133,0.1313,0.1312,0.1308,0.1305,0,0,0,0.1358,0.1356,0.1354,0.1353,0.1349,0.1342,0.1341,0.1336,0.1335,0.133,0.133,0.1313,0.1312,0.1308,0.1305,0.1301,0,0,0,0.1358,0.1349,0.1354,0.1344,0.1349,0.1339,0.1341,0.1333,0.1328,0.133,0.1313,0.1312,0.1308,0.1306,0.1301,0.1296,0.1295,0,0,0.1346,0.1347,0.1341,0.1346,0.1335,0.134,0.1329,0.1324,0.1324,0.1316,0.1316,0.1308,0.1305,0.1301,0.1284,0.1283,0,0,0,0.1337,0.1333,0.133,0.1326,0.1323,0.1321,0.1319,0.1317,0.1311,0.132,0.1305,0.1303,0.1301,0.1298,0.1297,0.1295,0.1311,0.1311,0.1311,0.1317,0.1319,0.131,0.1311,0.1307,0.1306,0.1303,0.1302,0.1303,0.13,0.1297,0.1287,0.1285,0.1284,0.1282,0.1295,0.1295,0.1295,0.1295,0.1299,0.1294,0.1299,0.1291,0.1294,0.1288,0.1287,0.1289,0.1284,0.1288,0.1286,0.1291,0.1282,0.128,0.1295,0.1295,0.1295,0.1295,0.1295,0.1287,0.1284,0.1284,0.128,0.1277,0.1278,0.1274,0.1276,0.1278,0.1275,0.1274,0.1274,0.1274,0.1275,0.1275,0.1275,0.1275,0.1275,0.1275,0.1273,0.1273,0.1269,0.1268,0.1267,0.1265,0.1266,0.1265,0.1264,0.1266,0.1266,0.1269,0.1281,0.1284,0.1274,0.1274,0.1274,0.1274,0.1274,0.1254,0.1259,0.1253,0.1252,0.1252,0.1249,0.1253,0.1251,0.125,0.1248,0.1253,0.1261,0.1262,0.1263,0.1266,0.1252,0.1252,0.1252,0.1252,0.1243,0.1245,0.124,0.1239,0.1238,0.1241,0.1236,0.1237,0.1239,0.124,0.1242,0.1246,0.1247,0.1247,0.1249,0.1251,0.1234,0.1234,0.1234,0.1232,0.1234,0.1228,0.1231,0.1232,0.1232,0.1228,0.1226,0.123,0.1233,0.124,0.1241,0.1247,0.1248,0.125,0.1252,0.1257,0,0]}]]